World > North America > United States > Massachusetts

Upton, Massachusetts Regional Weather

Lat: 42.17N, Lon: 71.61W
Wx Zone: MAZ012Web Search

Helpful Tip: Type the letters wx in the search engine next time you need to find us.

Feedback
Upton Weather Map
UTC Time: 3/2/2021, 23:31
Your Time:

Upton, MA Regional Weather

Expires:202103030000;;380640
ASUS41 KGYX 022310
RWRGYX
WEATHER ROUNDUP FOR MAINE AND NEW HAMPSHIRE
NATIONAL WEATHER SERVICE GRAY ME
600 PM EST TUE MAR 02 2021


MAZ007-012-024-CTZ003-RIZ002-NYZ038-NYZ072-030000-
SOUTHERN NEW ENGLAND AND NY
  
CITY           SKY/WX    TMP DP  RH WIND       PRES   REMARKS
BOSTON         PTCLDY    26  -6  24 W15G28    29.94R WCI  14          
WORCESTER      CLEAR     22  -4  32 W17G29    29.91R WCI   8          
NANTUCKET      CLEAR     28   9  44 W23G35    29.96R WCI  14          
PROVIDENCE     PTCLDY    27  -3  27 W16G22    30.01R WCI  15          
HARTFORD       PTCLDY    25  -4  28 W14       30.06R WCI  13          
ALBANY         PTCLDY    20   2  45 W18G28    30.13R WCI   5          
NEW YORK CITY  PTCLDY    33   2  26 NW17G25   30.15R                  
$$


SKY/WX - Weather  TMP - Temperature  DP - Dew Point  RH - Relative Humidity
WIND - Wind Direction/Speed PRES - Barometric Pressure VSB - Visibility
WCI - Wind Chill Index E13G22 Wind - East Wind 13 mph/Gusts of 22 mph